Regional Weather Roundup
Issued by NWS Charleston, SC

Current Version | Previous Version | Text Only | Print | Product List | Glossary Off
Versions: 1 2 3 4 5 6 7 8 9 10 11 12 13 14 15 16 17 18 19 20 21 22 23 24 25 26 27 28 29 30 31 32 33 34 35 36 37 38 39 40 41 42 43 44 45 46 47 48 49 50

000
ASUS42 KCHS 060713
RWRCHS

REGIONAL WEATHER ROUNDUP
NATIONAL WEATHER SERVICE CHARLESTON SC
300 AM EDT FRI MAY 06 2016

NOTE: "FAIR" INDICATES FEW OR NO CLOUDS BELOW 12,000 FEET WITH NO
SIGNIFICANT WEATHER AND/OR OBSTRUCTIONS TO VISIBILITY.

NOT ALL STATIONS ARE QUALITY CONTROLLED. USE DATA WITH CAUTION...
ESPECIALLY DEWPOINT OBSERVATIONS.

SCZ027-030-031-034>040-042>050-060800-
...SOUTHEAST SOUTH CAROLINA...

CITY           SKY/WX    TMP DP  RH WIND       PRES   REMARKS
N CHARLESTON   PTCLDY    51  44  77 W5        29.75F
WATERFRONT PRK   N/A     54  46  74 VRB3      29.75F
MOUNT PLEASANT FAIR      52  45  76 NW3       29.75F
JOHNS ISLAND   FAIR      50  45  81 W7        29.76S
PINOPOLIS        N/A     57  46  67 NW15      29.67S
MONCKS CORNER  FAIR      50  41  71 CALM      29.74F
SUMMERVILLE    FAIR      46  46 100 CALM      29.77F
BEAUFORT MCAS  CLEAR     52  45  77 NW8       29.78F
BEAUFORT ARPT  FAIR      54  45  71 NW10      29.78S
HILTON HEAD IS CLEAR     55  46  71 NW9       29.80S
WALTERBORO     SUNNY     50  46  87 CALM      29.78F
ALLENDALE      FAIR      48  46  93 CALM      29.78F

...SOUTHERN MIDLANDS AND PEE DEE...

CITY           SKY/WX    TMP DP  RH WIND       PRES   REMARKS
GEORGETOWN     FAIR      48  43  81 W5        29.74F
KINGSTREE      FAIR      48  45  87 W7        29.73F
ORANGEBURG     CLOUDY    51  45  79 NW5       29.77F
BARNWELL       FAIR      48  48 100 SW6       29.79F
AIKEN          FAIR      45  43  93 W5        29.81F
MANNING        FAIR      50  45  81 CALM      29.75S
COLUMBIA       CLOUDY    53  47  79 W9        29.75F
SUMTER         CLOUDY    51  46  83 NW8       29.72F
FLORENCE       CLOUDY    52  46  80 NW7       29.72F
MYRTLE BEACH   CLEAR     50  39  66 W9        29.73S
N MYRTLE BEACH PTCLDY    49  46  90 W6        29.70F

$$

GAZ063-065-086>088-099>101-113>116-118-119-134>141-150-060800-
...SOUTHEAST GEORGIA...

CITY           SKY/WX    TMP DP  RH WIND       PRES   REMARKS
SAVANNAH ARPT  CLEAR     52  44  74 W8        29.80F
HUNTER AAF     CLEAR     51  45  78 W8        29.77F
FORT STEWART   CLEAR     52  44  73 NW7       29.79F
STATESBORO     PTCLDY    53  49  86 NW8       29.81F
SYLVANIA       SUNNY     51  47  87 NW5       29.81S
CLAXTON        FAIR      50  47  90 W5        29.82F

...CSRA...CENTRAL AND FAR SOUTHEAST GEORGIA...

CITY           SKY/WX    TMP DP  RH WIND       PRES   REMARKS
THOMSON        PTCLDY    46  46  99 W3        29.85F
AUGUSTA-BUSH   CLEAR     48  43  82 W6        29.80F
AUGUSTA-DANIEL CLEAR     51  41  68 NW6       29.80F
SWAINSBORO     FAIR      46  43  87 W5        29.83F
VIDALIA        CLEAR     50  43  76 NW6       29.82F
EASTMAN        FAIR      47  42  82 W3        29.87F
HAZLEHURST     FAIR      50  46  85 W3        29.84S
ALMA           CLEAR     51  44  77 NW6       29.84F
WAYCROSS       CLEAR     51  45  80 NW7       29.84F
JESUP          FAIR      52  46  82 NW6       29.83F
BAXLEY         FAIR      52  46  82 NW3       29.83F
BRUNSWICK      CLEAR     59  50  72 W5        29.83F
SAINT SIMONS   CLEAR     55  44  66 NW6       29.81F

$$

SCZ027-028-034-036>038-045-046-048>050-GAZ119-141-060800-
...LAKE AND SUPPLEMENTAL COASTAL OBSERVATIONS...

STATION/POSITION TIME  TEMP    WIND        PRES    WAVE   SWELL
                       AIR SEA DIR/SP/G            HT/PER HT/PER/DIR
                 (UTC) (F)     (DEG/KT/KT) (MB)    (FT/S) (FT/S/D)
WINYAH BAY       0545   52     300/  5     1006.0
LAKE MURRAY      0600   52     310/  4/  7 1007.8F
ACE BASIN NERRS  NOT AVBL
FORT PULASKI     0600   57 73  280/ 14/ 16 1009.0S
SAPELO ISLAND    0600   57     290/  8     1010.0S

$$

ANZ835-935-AMZ111-154-330-350-352-354-370-450-454-472-060800-
...C-MAN AND BUOY OBSERVATIONS...

STATION/POSITION TIME  TEMP    WIND        PRES    WAVE   SWELL
                       AIR SEA DIR/SP/G            HT/PER HT/PER/DIR
                 (UTC) (F)     (DEG/KT/KT) (MB)    (FT/S) (FT/S/D)
BUOY 41004       0650   61 73  310/ 17/ 23 1006.1F   5/ 7
BUOY 41008       NOT AVBL
FOLLY BEACH CMAN 0600   53     300/  6/  8 1007.9S
CAPERS NEARSHORE 0608   56 70  340/ 16/ 21 1007.5R
FRIPP NEARSHORE  0608   58 69  320/ 17/ 21 1007.4R


STATION/POSITION TIME  TEMP    WIND        PRES    WAVE   SWELL
                       AIR SEA DIR/SP/G            HT/PER HT/PER/DIR
                 (UTC) (F)     (DEG/KT/KT) (MB)    (FT/S) (FT/S/D)
5E ST. MARYS GA  0621      71                N/A     2/ 3
FRYING PAN BUOY  0600   62 72  290/ 14/ 19 1005.0F
BUOY 41025       0650   55 77  340/ 10/ 14 1003.4F   4/ 8   5/ 50/ 8
CAPE LOOKOUT NC  0600   56      10/  4/  4 1003.8F
BUOY 41002       0650   70 74  290/ 14/ 16 1004.9F   9/ 9   8/260/ 9
BUOY 41010       0620   68 78  350/  4/  8 1008.0F
ST AUGUSTINE FL  0700   59 69  300/  6/  8 1010.3F


$$



USA.gov is the U.S. government's official web portal to all federal, state and local government web resources and services.